Flag for China Weather past 2 weeks in Kunming, Yunnan, China

Now
55 °F

Clear.


Feels Like: 50 °F
Forecast: 38 / 67 °F
Wind: 24 mph from Southwest

Location: Kunming Airport

Current Time: Jan 26, 2015 at 9:00:25 PM

Latest Report: Jan 26, 2015 at 8:00 PM


Visibility: 10 mi

Pressure: 30.09 "Hg

Humidity: 31%

Dew point: 25 °F

Location of KunmingLocation

Historic Weather in Kunming — Graph

°F

Kunming temperature yesterday

Maximum temperature yesterday: 63 °F (at 4:00 PM)
Minimum temperature yesterday: 39 °F (at 6:00 AM)
Average temperature yesterday: 49 °F

Past Weeks' High & Low Weather Summary

 TemperatureHumidityPressure
High66 °F (Jan 23, 4:00 PM)100% (Jan 12, 12:00 AM)30.39 "Hg (Jan 12, 12:00 AM)
Low28 °F (Jan 12, 8:00 AM)17% (Jan 23, 4:00 PM)29.95 "Hg (Jan 23, 4:00 PM)
Average44 °F74%30.20 "Hg
* Reported Jan 11 8:00 PM — Jan 26 8:00 PM, Kunming, Weather by CustomWeather, © 2014

Note: Actual official high and low records may vary slightly from our data, if they occured in-between our weather recording intervals... More about our weather records

Advertising

Kunming weather history for previous 24 hours

 ConditionsComfort  
Time TempWeatherWind HumidityBarometerVisibility
8:00 PM
Jan 26
55 °FClear.24 mph31%30.09 "Hg10 mi
7:00 PM59 °FClear.17 mph25%30.07 "Hg10 mi
6:00 PM64 °FSunny.22 mph18%30.04 "Hg10 mi
5:00 PM66 °FSunny.22 mph18%30.07 "Hg10 mi
4:00 PM66 °FSunny.22 mph17%30.04 "Hg10 mi
3:00 PM64 °FSunny.17 mph26%30.07 "Hg10 mi
2:00 PM61 °FSunny.17 mph31%30.09 "Hg10 mi
1:00 PM59 °FSunny.17 mph36%30.15 "Hg10 mi
12:00 PM55 °FSunny.17 mph44%30.18 "Hg10 mi
11:00 AM52 °FSunny.15 mph50%30.18 "Hg10 mi
10:00 AM48 °FSunny.15 mph62%30.18 "Hg10 mi
9:00 AM43 °FClear.15 mph76%30.15 "Hg4 mi
8:00 AM37 °FClear.15 mph87%30.15 "Hg5 mi
7:00 AM41 °FClear.13 mph81%30.12 "Hg10 mi
6:00 AM41 °FClear.13 mph81%30.12 "Hg10 mi
5:00 AM41 °FClear.10 mph81%30.12 "Hg10 mi
4:00 AM39 °FClear.8 mph81%30.12 "Hg10 mi
3:00 AM41 °FClear.10 mph76%30.15 "Hg10 mi
2:00 AM43 °FClear.13 mph71%30.15 "Hg10 mi
1:00 AM45 °FClear.13 mph66%30.15 "Hg10 mi
12:00 AM45 °FClear.10 mph66%30.18 "Hg10 mi
11:00 PM
Jan 25
45 °FClear.6 mph61%30.18 "Hg10 mi
10:00 PM46 °FClear.6 mph57%30.15 "Hg10 mi
9:00 PM50 °FClear.8 mph50%30.15 "Hg10 mi
Weather by CustomWeather, © 2014

See weather overviewHow to use our weather pages